Погода в Усугли

Хотите узнать прогноз погоды в Усугли? Тогда Вам сюда: Погода в Усугли

Поиск расширенной информации на нашем сайте:

Полезная информация:

Новости сайта



02.01.2020
Опубликован Долгосрочный прогноз погоды по городам России и ближнего зарубежья на январь 2020 года.
Карты: Прогноз на январь и февраль 2020 года, Сравнение прогнозируемой аномалии приземной температуры воздуха на январь 2020 года по разным моделям.




Погода в Усугли - сегодня

Время (UTC), дата Ветер
(°,м/с) 
Видим.   Явления Облачность Т
(°С)
Тd
(°С)
f(%) Тe
(°С)
Pmin
(гПа)
dP
(гПа)
Po
(мм)
O2
(г/м3)
Тmin Tmax R s Состояние
почвы
21 23.11.20 300 (СЗ) н/о    6/0 верхняя 
[Ci ing]
-2.9 -8.5 65 -5  1020.8  0.8  706  288           
00 24.11.20 320 (СЗ) 20000 м    10/0 верхняя 
[Cs]
-7.1 -10.4 77 -7  1023.9  0.8  707  294  -7.9         
03 24.11.20 360 (С) 20000 м    1/0 средняя 
[Ac trans]
-2.1 -12.6 44 -5  1024.3  1.8  709  289           
06 24.11.20 350 (С) 20000 м    3/3 1000 м кучево-дожд. 
[Cb cap]
-1.8 -17.9 28 -5  1024.6  0.3  709  289           
09 24.11.20 330 (СЗ) 20000 м    3/0 средняя 
[Ac trans]
-8.6 -18.8 44 -10  1028.3  1.5  710  297           
12 24.11.20 тихо ()   н/о    8/0 средняя 
[Ac trans]
-13.9 -18.6 68 -14  1031.7  1.5  711  303    -1.3       
15 24.11.20 тихо ()   н/о    3/0 средняя, верхняя 
[Ac lent|Ci fib]
-15.7 -19.3 74 -16  1034  1.5  712  306           
18 24.11.20 130 (ЮВ) н/о    ясно 
-17.3 -21.4 70 -20  1035.8  1.2  713  308           
21 24.11.20 120 (ЮВ) н/о    ясно 
-18.8 -22.6 72 -19  1037.8  1.3  714  311           
00 25.11.20 140 (ЮВ) 20000 м    ясно 
-21 -24.3 75 -21  1040.8  2.1  716  314  -21.2         
03 25.11.20 180 (Ю) 20000 м    ясно 
-10.4 -18.7 51 -12  1038.1  0.9  716  301  -21.5         
06 25.11.20 010 (С) 20000 м    ясно 
-6.4 -22.7 26 -9  1036.3  -0.6  716  297           
09 25.11.20 250 (З) 20000 м    ясно 
-14.5 -23.5 46 -15  1039.5  0.6  716  306           
12 25.11.20 тихо ()   н/о    ясно 
-20.2 -25 66 -20  1042.8  1.2  717  314    -6.2       
15 25.11.20 тихо ()   н/о    н/о 
-22.5 -26.8 68 -23  1043.9  0.2  717  317           
18 25.11.20 тихо ()   н/о    н/о 
-24.2 -27.8 72 -24  1044.6  0.1  718  319           
21 25.11.20 тихо ()   н/о    ясно 
-25.9 -29.6 71 -26  1044.9  -0.3  717  321           
00 26.11.20 тихо ()   20000 м    ясно 
-26.6 -30.3 71 -27  1046.1  0.8  718  322  -26.7         
03 26.11.20 тихо ()   20000 м    ясно 
-17.4 -22.9 62 -17  1043.2  0.4  718  311           
06 26.11.20 190 (Ю) 20000 м    ясно 
-8.4 -21.5 34 -8  1038.1  -1.9  717  299           
09 26.11.20 230 (ЮЗ) 20000 м    ясно 
-16.6 -22.8 59 -17  1041.4  0.5  717  309           
12 26.11.20 тихо ()   н/о    ясно 
-22.3 -26 72 -22  1044.7  1.2  718  317    -7.2       
15 26.11.20 130 (ЮВ) н/о    ясно 
-24 -27.3 74 -24  1045.5  0.1  718  319           
18 26.11.20 тихо ()   н/о    ясно 
-25.6 -29.1 73 -26  1046.2  0.2  718  321           
21 26.11.20 тихо ()   н/о    н/о 
-26.4 -30.2 70 -26  1046.1  -0.4  718  322           
Время (UTC), дата Ветер
(°,м/с) 
Видим.   Явления Облачность Т
(°С)
Тd
(°С)
f(%) Тe
(°С)
Pmin
(гПа)
dP
(гПа)
Po
(мм)
O2
(г/м3)
Тmin Tmax R s Состояние
почвы

Для получения пояснительной информации подведите курсор к названию столбца.

ПОГОДА в Усугли - архив

Всё, что Вы хотите узнать о погоде в Усугли - удобно и подробно!

Выберите нужную дату (начиная с 1 января 2019* года) и нажмите кнопку "Найти".
Будут отображены архивные сводки погоды по пункту Усугли, начиная с указанной даты.


Отображать данные в формате CSV (для использования в таблицах Excel)


Внимание! Наш архив погоды предназначен исключительно для личного некоммерческого использования в познавательных целях. Если Вам необходимы официальные справки о состоянии погоды (для производственных, юридических, коммерческих и т.п. целей), обращайтесь в органы Росгидромета.

*Примечание: данная дата относится к архиву по метеостанциям СССР (Россия, СНГ, Балтия).
Архив по метеостанциям Зарубежной Европы и Азии (кроме Китая) хранится 10 дней, по другим регионам земного шара (Китай, Африка, Америка, Австралия, Океания) - 1 день.

Усугли - район местоположения метеостанции


Название, широта, долгота, высота метеостанции:
Усугли 52.6°ш. 115.2°д. 646 м над ур. моря [Российская Федерация]

Дополнительная информация

В oтличие oт бoльшинства пoгoдных сайтoв мы публикуем пoдрoбную метеoинфoрмацию в детальнoм прoфессиoнальнoм фoрмате.

Характеристики температуры и влажнoсти вoздуха измеряются на высoте 2 м в тени вдали oт зданий и деревьев.
Скoрoсть ветра измеряется на высoте 10 м (на урoвне рoста челoвека скoрoсть ветра ниже в 1.5-2 раза). Если метеoстанция нахoдится в гoрoде или в лесу, тo скoрoсть ветра занижена на 2-4 м/с пo сравнению с oткрытым местoм. Скoрoсть ветра над акватoриями крупных рек и oзёр, а также на вершинах хoлмoв на 2-5 м/с выше, чем в oбычных услoвиях.
Атмoсфернoе давление в разных тoчках местнoсти мoжет значительнo oтличаться oт давления на метеoстанции, в зависимoсти oт услoвий рельефа (при пoдъёме на 10 м давление пoнижается примернo на 1 мм рт.ст.).